Location: Cambroso
(45.2833°N, 12.0850°E)
Time: 19:58:03
(UTC+00:00)

Meteor 2-13 Rocket - Pass Details

Date: 21 January 2021
Orbit: 936 x 958 km, 82.5° (Epoch: 04 March)

Event Time Altitude Azimuth Distance (km) Brightness Sun altitude
Rises 17:44:06 0° 189° (S) 3,600 7.7 -17.5°
Reaches altitude 10° 17:46:34 10° 189° (S) 2,662 7.0 -17.9°
Maximum altitude 17:52:41 84° 279° (W) 963 4.5 -19.0°
Drops below altitude 10° 17:58:52 10° 8° (N) 2,694 6.7 -20.0°
Sets 18:01:23 0° 9° (N) 3,646 7.3 -20.5°
